TOPEX/POSEIDON

导读

TOPEX/POSEIDON是美国NASA与法国CNES联合研制的海洋观测卫星,于美国当地时间1992年8月10日发射升空。它搭载先进雷达高度计等设备,首次实现全球海平面高精度连续测量,可探究海平面变化、洋流特征与气候互动机制。其获取的精准数据提升了极端天气预测能力,为Jason系列后续卫星奠定技术基础,推动海洋学与气候科学研究迈入新时代,对全球变化研究意义重大。

Basic Information
目录编号:
22076
目录名称:
TOPEX/POSEIDON
国际标识:
1992-052A
轨道中心:
EARTH
卫星名称:
TOPEX/POSEIDON
卫星全名:
--
卫星状态:
在轨 (已飞行12453 天)
发射日期:
1992-08-10 UTC
国别 :
美国 (US)
星等 :
--
This satellite is enrolled in the Space Conjunction Data Service (SCDS) and the current flight risk assessment level is: No High Risk
Orbit Information
数据来源 国际轨道数据 AOE轨道数据
星历时间 2026-09-14T04:51:44+0800
5小时前
查看轨道信息
2026-09-13T02:00:00+0800
1天前
查看轨道信息
半长轴 7715.204km 7715.203km
偏心率 0.0008185 0.0008235
轨道倾角 66.042° 66.042°
近地点辐角 266.923° 266.578°
升交点赤经 307.917° 310.243°
平近点角 263.876° 142.746°
近地点 1330.752km 1330.712km
远地点 1343.382km 1343.42km
周期 112.404分钟 112.404分钟
每日圈数 12.81096 12.810963
Detailed Information
使用方式:
暂无
2D Orbit Map
3D Orbit Map
Orbit Altitude Analysis Chart
Orbit Inclination Analysis Chart
Orbit Comprehensive Analysis Chart
View Comprehensive Chart
Miss Distance Evolution Trend with All Objects
Collision Probability Evolution Trend with All Objects